Year,Month,Day,Hour,Minute,Value (Times are PST for temperature in C)
2009,07,21,00,00,21.60
2009,07,21,00,01,21.60
2009,07,21,00,02,21.60
2009,07,21,00,03,21.60
2009,07,21,00,04,21.30
2009,07,21,00,05,21.30
2009,07,21,00,06,21.20
2009,07,21,00,07,21.20
2009,07,21,00,08,21.10
2009,07,21,00,09,21.10
2009,07,21,00,10,21.00
2009,07,21,00,11,21.00
2009,07,21,00,12,20.90
2009,07,21,00,13,20.80
2009,07,21,00,14,20.80
2009,07,21,00,15,20.70
2009,07,21,00,16,20.60
2009,07,21,00,17,20.50
2009,07,21,00,18,20.50
2009,07,21,00,19,20.40
2009,07,21,00,20,20.30
2009,07,21,00,21,20.30
2009,07,21,00,22,20.20
2009,07,21,00,23,20.20
2009,07,21,00,24,20.20
2009,07,21,00,25,20.20
2009,07,21,00,26,20.20
2009,07,21,00,27,20.20
2009,07,21,00,28,20.10
2009,07,21,00,29,20.10
2009,07,21,00,30,20.10
2009,07,21,00,31,20.10
2009,07,21,00,32,20.10
2009,07,21,00,33,20.10
2009,07,21,00,34,20.10
2009,07,21,00,35,20.10
2009,07,21,00,36,20.10
2009,07,21,00,37,20.10
2009,07,21,00,38,20.00
2009,07,21,00,39,19.90
2009,07,21,00,40,19.90
2009,07,21,00,41,19.90
2009,07,21,00,42,19.90
2009,07,21,00,43,19.90
2009,07,21,00,44,19.90
2009,07,21,00,45,19.90
2009,07,21,00,46,19.90
2009,07,21,00,47,19.90
2009,07,21,00,48,19.90
2009,07,21,00,49,19.80
2009,07,21,00,50,19.80
2009,07,21,00,51,19.80
2009,07,21,00,52,19.70
2009,07,21,00,53,19.60
2009,07,21,00,54,19.50
2009,07,21,00,55,19.40
2009,07,21,00,56,19.40
2009,07,21,00,57,19.40
2009,07,21,00,58,19.30
2009,07,21,00,59,19.30
2009,07,21,01,00,19.20
2009,07,21,01,01,19.20
2009,07,21,01,02,19.20
2009,07,21,01,03,19.10
2009,07,21,01,04,19.10
2009,07,21,01,05,19.10
2009,07,21,01,06,19.10
2009,07,21,01,07,19.10
2009,07,21,01,08,19.10
2009,07,21,01,09,19.10
2009,07,21,01,10,19.10
2009,07,21,01,11,19.10
2009,07,21,01,12,19.10
2009,07,21,01,13,19.10
2009,07,21,01,14,18.90
2009,07,21,01,15,18.90
2009,07,21,01,16,18.90
2009,07,21,01,17,18.90
2009,07,21,01,18,18.90
2009,07,21,01,19,18.90
2009,07,21,01,20,18.90
2009,07,21,01,21,18.90
2009,07,21,01,22,18.90
2009,07,21,01,23,18.90
2009,07,21,01,24,18.90
2009,07,21,01,25,18.90
2009,07,21,01,26,18.90
2009,07,21,01,27,18.90
2009,07,21,01,28,18.90
2009,07,21,01,29,18.90
2009,07,21,01,30,18.90
2009,07,21,01,31,18.90
2009,07,21,01,32,18.90
2009,07,21,01,33,18.90
2009,07,21,01,34,18.90
2009,07,21,01,35,18.90
2009,07,21,01,36,18.90
2009,07,21,01,37,18.90
2009,07,21,01,38,18.90
2009,07,21,01,39,18.90
2009,07,21,01,40,18.90
2009,07,21,01,41,18.90
2009,07,21,01,42,18.90
2009,07,21,01,43,18.90
2009,07,21,01,44,18.80
2009,07,21,01,45,18.70
2009,07,21,01,46,18.70
2009,07,21,01,47,18.60
2009,07,21,01,48,18.50
2009,07,21,01,49,18.40
2009,07,21,01,50,18.40
2009,07,21,01,51,18.30
2009,07,21,01,52,18.20
2009,07,21,01,53,18.20
2009,07,21,01,54,18.20
2009,07,21,01,55,18.20
2009,07,21,01,56,18.30
2009,07,21,01,57,18.30
2009,07,21,01,58,18.30
2009,07,21,01,59,18.20
2009,07,21,02,00,18.20
2009,07,21,02,01,18.20
2009,07,21,02,02,18.20
2009,07,21,02,03,18.20
2009,07,21,02,04,18.20
2009,07,21,02,05,18.20
2009,07,21,02,06,18.10
2009,07,21,02,07,18.00
2009,07,21,02,08,17.90
2009,07,21,02,09,17.90
2009,07,21,02,10,17.70
2009,07,21,02,11,17.60
2009,07,21,02,12,17.50
2009,07,21,02,13,17.30
2009,07,21,02,14,17.30
2009,07,21,02,15,17.10
2009,07,21,02,16,17.00
2009,07,21,02,17,16.90
2009,07,21,02,18,16.80
2009,07,21,02,19,16.70
2009,07,21,02,20,16.60
2009,07,21,02,21,16.50
2009,07,21,02,22,16.40
2009,07,21,02,23,16.40
2009,07,21,02,24,16.30
2009,07,21,02,25,16.30
2009,07,21,02,26,16.30
2009,07,21,02,27,16.30
2009,07,21,02,28,16.30
2009,07,21,02,29,16.30
2009,07,21,02,30,16.30
2009,07,21,02,31,16.30
2009,07,21,02,32,16.30
2009,07,21,02,33,16.30
2009,07,21,02,34,16.30
2009,07,21,02,35,16.40
2009,07,21,02,36,16.40
2009,07,21,02,37,16.40
2009,07,21,02,38,16.40
2009,07,21,02,39,16.40
2009,07,21,02,40,16.40
2009,07,21,02,41,16.50
2009,07,21,02,42,16.60
2009,07,21,02,43,16.60
2009,07,21,02,44,16.60
2009,07,21,02,45,16.60
2009,07,21,02,46,16.60
2009,07,21,02,47,16.60
2009,07,21,02,48,16.60
2009,07,21,02,49,16.70
2009,07,21,02,50,16.70
2009,07,21,02,51,16.70
2009,07,21,02,52,16.70
2009,07,21,02,53,16.70
2009,07,21,02,54,16.80
2009,07,21,02,55,16.80
2009,07,21,02,56,16.90
2009,07,21,02,57,16.90
2009,07,21,02,58,16.90
2009,07,21,02,59,17.00
2009,07,21,03,00,17.00
2009,07,21,03,01,17.00
2009,07,21,03,02,17.00
2009,07,21,03,03,17.00
2009,07,21,03,04,17.00
2009,07,21,03,05,17.00
2009,07,21,03,06,17.10
2009,07,21,03,07,17.10
2009,07,21,03,08,17.10
2009,07,21,03,09,17.10
2009,07,21,03,10,17.10
2009,07,21,03,11,17.10
2009,07,21,03,12,17.10
2009,07,21,03,13,17.10
2009,07,21,03,14,17.10
2009,07,21,03,15,17.10
2009,07,21,03,16,17.10
2009,07,21,03,17,17.00
2009,07,21,03,18,17.00
2009,07,21,03,19,17.00
2009,07,21,03,20,16.90
2009,07,21,03,21,16.90
2009,07,21,03,22,16.80
2009,07,21,03,23,16.80
2009,07,21,03,24,16.70
2009,07,21,03,25,16.70
2009,07,21,03,26,16.70
2009,07,21,03,27,16.60
2009,07,21,03,28,16.60
2009,07,21,03,29,16.50
2009,07,21,03,30,16.40
2009,07,21,03,31,16.40
2009,07,21,03,32,16.40
2009,07,21,03,33,16.40
2009,07,21,03,34,16.30
2009,07,21,03,35,16.30
2009,07,21,03,36,16.30
2009,07,21,03,37,16.30
2009,07,21,03,38,16.30
2009,07,21,03,39,16.30
2009,07,21,03,40,16.30
2009,07,21,03,41,16.30
2009,07,21,03,42,16.30
2009,07,21,03,43,16.30
2009,07,21,03,44,16.30
2009,07,21,03,45,16.30
2009,07,21,03,46,16.40
2009,07,21,03,47,16.40
2009,07,21,03,48,16.40
2009,07,21,03,49,16.40
2009,07,21,03,50,16.40
2009,07,21,03,51,16.30
2009,07,21,03,52,16.30
2009,07,21,03,53,16.30
2009,07,21,03,54,16.20
2009,07,21,03,55,16.20
2009,07,21,03,56,16.20
2009,07,21,03,57,16.10
2009,07,21,03,58,16.10
2009,07,21,03,59,16.10
2009,07,21,04,00,16.10
2009,07,21,04,01,16.10
2009,07,21,04,02,16.10
2009,07,21,04,03,16.10
2009,07,21,04,04,16.00
2009,07,21,04,05,15.90
2009,07,21,04,06,15.90
2009,07,21,04,07,15.90
2009,07,21,04,08,15.90
2009,07,21,04,09,15.90
2009,07,21,04,10,15.90
2009,07,21,04,11,15.80
2009,07,21,04,12,15.80
2009,07,21,04,13,15.90
2009,07,21,04,14,15.90
2009,07,21,04,15,15.90
2009,07,21,04,16,15.90
2009,07,21,04,17,15.80
2009,07,21,04,18,15.80
2009,07,21,04,19,15.80
2009,07,21,04,20,15.80
2009,07,21,04,21,15.80
2009,07,21,04,22,15.80
2009,07,21,04,23,15.70
2009,07,21,04,24,15.70
2009,07,21,04,25,15.60
2009,07,21,04,26,15.60
2009,07,21,04,27,15.60
2009,07,21,04,28,15.50
2009,07,21,04,29,15.50
2009,07,21,04,30,15.50
2009,07,21,04,31,15.50
2009,07,21,04,32,15.40
2009,07,21,04,33,15.40
2009,07,21,04,34,15.40
2009,07,21,04,35,15.40
2009,07,21,04,36,15.40
2009,07,21,04,37,15.40
2009,07,21,04,38,15.30
2009,07,21,04,39,15.30
2009,07,21,04,40,15.40
2009,07,21,04,41,15.40
2009,07,21,04,42,15.50
2009,07,21,04,43,15.50
2009,07,21,04,44,15.60
2009,07,21,04,45,15.60
2009,07,21,04,46,15.70
2009,07,21,04,47,15.70
2009,07,21,04,48,15.80
2009,07,21,04,49,15.80
2009,07,21,04,50,15.90
2009,07,21,04,51,15.90
2009,07,21,04,52,16.00
2009,07,21,04,53,16.10
2009,07,21,04,54,16.10
2009,07,21,04,55,16.10
2009,07,21,04,56,16.10
2009,07,21,04,57,16.10
2009,07,21,04,58,16.10
2009,07,21,04,59,16.10
2009,07,21,05,00,16.10
2009,07,21,05,01,16.10
2009,07,21,05,02,16.10
2009,07,21,05,03,16.10
2009,07,21,05,04,16.10
2009,07,21,05,05,16.10
2009,07,21,05,06,16.10
2009,07,21,05,07,16.10
2009,07,21,05,08,16.10
2009,07,21,05,09,16.10
2009,07,21,05,10,16.00
2009,07,21,05,11,15.90
2009,07,21,05,12,15.90
2009,07,21,05,13,15.90
2009,07,21,05,14,15.80
2009,07,21,05,15,15.80
2009,07,21,05,16,15.80
2009,07,21,05,17,15.80
2009,07,21,05,18,15.80
2009,07,21,05,19,15.80
2009,07,21,05,20,15.80
2009,07,21,05,21,15.80
2009,07,21,05,22,15.80
2009,07,21,05,23,15.80
2009,07,21,05,24,15.80
2009,07,21,05,25,15.80
2009,07,21,05,26,15.80
2009,07,21,05,27,15.80
2009,07,21,05,28,15.80
2009,07,21,05,29,15.80
2009,07,21,05,30,15.80
2009,07,21,05,31,15.80
2009,07,21,05,32,15.80
2009,07,21,05,33,15.80
2009,07,21,05,34,15.70
2009,07,21,05,35,15.70
2009,07,21,05,36,15.60
2009,07,21,05,37,15.60
2009,07,21,05,38,15.50
2009,07,21,05,39,15.50
2009,07,21,05,40,15.50
2009,07,21,05,41,15.50
2009,07,21,05,42,15.50
2009,07,21,05,43,15.40
2009,07,21,05,44,15.40
2009,07,21,05,45,15.30
2009,07,21,05,46,15.30
2009,07,21,05,47,15.30
2009,07,21,05,48,15.20
2009,07,21,05,49,15.20
2009,07,21,05,50,15.10
2009,07,21,05,51,15.10
2009,07,21,05,52,15.10
2009,07,21,05,53,15.10
2009,07,21,05,54,15.10
2009,07,21,05,55,15.00
2009,07,21,05,56,15.00
2009,07,21,05,57,15.00
2009,07,21,05,58,15.00
2009,07,21,05,59,15.00
2009,07,21,06,00,15.00
2009,07,21,06,01,15.10
2009,07,21,06,02,15.10
2009,07,21,06,03,15.10
2009,07,21,06,04,15.20
2009,07,21,06,05,15.20
2009,07,21,06,06,15.30
2009,07,21,06,07,15.30
2009,07,21,06,08,15.40
2009,07,21,06,09,15.40
2009,07,21,06,10,15.50
2009,07,21,06,11,15.60
2009,07,21,06,12,15.60
2009,07,21,06,13,15.70
2009,07,21,06,14,15.80
2009,07,21,06,15,15.80
2009,07,21,06,16,15.90
2009,07,21,06,17,16.00
2009,07,21,06,18,16.10
2009,07,21,06,19,16.10
2009,07,21,06,20,16.10
2009,07,21,06,21,16.20
2009,07,21,06,22,16.20
2009,07,21,06,23,16.30
2009,07,21,06,24,16.30
2009,07,21,06,25,16.30
2009,07,21,06,26,16.30
2009,07,21,06,27,16.40
2009,07,21,06,28,16.40
2009,07,21,06,29,16.40
2009,07,21,06,30,16.40
2009,07,21,06,31,16.40
2009,07,21,06,32,16.40
2009,07,21,06,33,16.50
2009,07,21,06,34,16.60
2009,07,21,06,35,16.60
2009,07,21,06,36,16.60
2009,07,21,06,37,16.60
2009,07,21,06,38,16.70
2009,07,21,06,39,16.70
2009,07,21,06,40,16.70
2009,07,21,06,41,16.80
2009,07,21,06,42,16.80
2009,07,21,06,43,16.90
2009,07,21,06,44,17.00
2009,07,21,06,45,17.00
2009,07,21,06,46,17.00
2009,07,21,06,47,17.00
2009,07,21,06,48,17.00
2009,07,21,06,49,17.00
2009,07,21,06,50,17.00
2009,07,21,06,51,17.00
2009,07,21,06,52,17.00
2009,07,21,06,53,17.10
2009,07,21,06,54,17.10
2009,07,21,06,55,17.20
2009,07,21,06,56,17.20
2009,07,21,06,57,17.20
2009,07,21,06,58,17.30
2009,07,21,06,59,17.30
2009,07,21,07,00,17.30
2009,07,21,07,01,17.30
2009,07,21,07,02,17.30
2009,07,21,07,03,17.40
2009,07,21,07,04,17.40
2009,07,21,07,05,17.50
2009,07,21,07,06,17.60
2009,07,21,07,07,17.70
2009,07,21,07,08,17.70
2009,07,21,07,09,17.80
2009,07,21,07,10,17.80
2009,07,21,07,11,17.90
2009,07,21,07,12,17.90
2009,07,21,07,13,17.90
2009,07,21,07,14,17.80
2009,07,21,07,15,17.80
2009,07,21,07,16,17.90
2009,07,21,07,17,17.90
2009,07,21,07,18,17.90
2009,07,21,07,19,18.00
2009,07,21,07,20,18.10
2009,07,21,07,21,18.10
2009,07,21,07,22,18.20
2009,07,21,07,23,18.20
2009,07,21,07,24,18.20
2009,07,21,07,25,18.20
2009,07,21,07,26,18.30
2009,07,21,07,27,18.30
2009,07,21,07,28,18.40
2009,07,21,07,29,18.40
2009,07,21,07,30,18.50
2009,07,21,07,31,18.60
2009,07,21,07,32,18.60
2009,07,21,07,33,18.70
2009,07,21,07,34,18.80
2009,07,21,07,35,18.80
2009,07,21,07,36,18.90
2009,07,21,07,37,18.90
2009,07,21,07,38,18.90
2009,07,21,07,39,19.10
2009,07,21,07,40,19.10
2009,07,21,07,41,19.20
2009,07,21,07,42,19.30
2009,07,21,07,43,19.30
2009,07,21,07,44,19.40
2009,07,21,07,45,19.40
2009,07,21,07,46,19.40
2009,07,21,07,47,19.40
2009,07,21,07,48,19.50
2009,07,21,07,49,19.60
2009,07,21,07,50,19.70
2009,07,21,07,51,19.80
2009,07,21,07,52,19.80
2009,07,21,07,53,19.90
2009,07,21,07,54,19.90
2009,07,21,07,55,19.90
2009,07,21,07,56,20.00
2009,07,21,07,57,20.10
2009,07,21,07,58,20.10
2009,07,21,07,59,20.20
2009,07,21,08,00,20.20
2009,07,21,08,01,20.20
2009,07,21,08,02,20.20
2009,07,21,08,03,20.20
2009,07,21,08,04,20.30
2009,07,21,08,05,20.40
2009,07,21,08,06,20.50
2009,07,21,08,07,20.50
2009,07,21,08,08,20.60
2009,07,21,08,09,20.70
2009,07,21,08,10,20.80
2009,07,21,08,11,20.80
2009,07,21,08,12,20.90
2009,07,21,08,13,21.00
2009,07,21,08,14,21.00
2009,07,21,08,15,21.10
2009,07,21,08,16,21.20
2009,07,21,08,17,21.20
2009,07,21,08,18,21.30
2009,07,21,08,19,21.30
2009,07,21,08,20,21.40
2009,07,21,08,21,21.50
2009,07,21,08,22,21.60
2009,07,21,08,23,21.60
2009,07,21,08,24,21.50
2009,07,21,08,25,21.30
2009,07,21,08,26,21.30
2009,07,21,08,27,21.30
2009,07,21,08,28,21.20
2009,07,21,08,29,21.00
2009,07,21,08,30,20.90
2009,07,21,08,31,20.80
2009,07,21,08,32,20.60
2009,07,21,08,33,20.50
2009,07,21,08,34,20.50
2009,07,21,08,35,20.50
2009,07,21,08,36,20.50
2009,07,21,08,37,20.50
2009,07,21,08,38,20.50
2009,07,21,08,39,20.60
2009,07,21,08,40,20.60
2009,07,21,08,41,20.50
2009,07,21,08,42,20.50
2009,07,21,08,43,20.50
2009,07,21,08,44,20.50
2009,07,21,08,45,20.50
2009,07,21,08,46,20.50
2009,07,21,08,47,20.60
2009,07,21,08,48,20.60
2009,07,21,08,49,20.70
2009,07,21,08,50,20.70
2009,07,21,08,51,20.80
2009,07,21,08,52,20.90
2009,07,21,08,53,21.00
2009,07,21,08,54,21.10
2009,07,21,08,55,21.10
2009,07,21,08,56,21.30
2009,07,21,08,57,21.30
2009,07,21,08,58,21.40
2009,07,21,08,59,21.40
2009,07,21,09,00,21.40
2009,07,21,09,01,21.30
2009,07,21,09,02,21.20
2009,07,21,09,03,21.20
2009,07,21,09,04,21.10
2009,07,21,09,05,21.10
2009,07,21,09,06,21.10
2009,07,21,09,07,21.00
2009,07,21,09,08,20.90
2009,07,21,09,09,20.90
2009,07,21,09,10,20.90
2009,07,21,09,11,21.00
2009,07,21,09,12,21.00
2009,07,21,09,13,21.00
2009,07,21,09,14,20.90
2009,07,21,09,15,20.80
2009,07,21,09,16,20.80
2009,07,21,09,17,20.70
2009,07,21,09,18,20.70
2009,07,21,09,19,20.80
2009,07,21,09,20,20.90
2009,07,21,09,21,21.00
2009,07,21,09,22,20.90
2009,07,21,09,23,20.90
2009,07,21,09,24,20.90
2009,07,21,09,25,20.80
2009,07,21,09,26,20.80
2009,07,21,09,27,20.80
2009,07,21,09,28,20.70
2009,07,21,09,29,20.70
2009,07,21,09,30,20.80
2009,07,21,09,31,20.80
2009,07,21,09,32,21.00
2009,07,21,09,33,21.00
2009,07,21,09,34,21.10
2009,07,21,09,35,21.20
2009,07,21,09,36,21.20
2009,07,21,09,37,21.30
2009,07,21,09,38,21.30
2009,07,21,09,39,21.40
2009,07,21,09,40,21.40
2009,07,21,09,41,21.30
2009,07,21,09,42,21.30
2009,07,21,09,43,21.20
2009,07,21,09,44,21.10
2009,07,21,09,45,21.10
2009,07,21,09,46,21.10
2009,07,21,09,47,21.10
2009,07,21,09,48,21.10
2009,07,21,09,49,21.00
2009,07,21,09,50,20.90
2009,07,21,09,51,20.80
2009,07,21,09,52,20.80
2009,07,21,09,53,20.70
2009,07,21,09,54,20.60
2009,07,21,09,55,20.60
2009,07,21,09,56,20.70
2009,07,21,09,57,20.70
2009,07,21,09,58,20.70
2009,07,21,09,59,20.80
2009,07,21,10,00,20.80
2009,07,21,10,01,20.70
2009,07,21,10,02,20.70
2009,07,21,10,03,20.60
2009,07,21,10,04,20.60
2009,07,21,10,05,20.60
2009,07,21,10,06,20.60
2009,07,21,10,07,20.60
2009,07,21,10,08,20.70
2009,07,21,10,09,20.70
2009,07,21,10,10,20.80
2009,07,21,10,11,20.80
2009,07,21,10,12,20.90
2009,07,21,10,13,21.00
2009,07,21,10,14,21.00
2009,07,21,10,15,21.00
2009,07,21,10,16,20.90
2009,07,21,10,17,20.90
2009,07,21,10,18,20.90
2009,07,21,10,19,20.90
2009,07,21,10,20,21.00
2009,07,21,10,21,21.00
2009,07,21,10,22,21.10
2009,07,21,10,23,21.10
2009,07,21,10,24,21.10
2009,07,21,10,25,21.10
2009,07,21,10,26,21.20
2009,07,21,10,27,21.30
2009,07,21,10,28,21.40
2009,07,21,10,29,21.50
2009,07,21,10,30,21.60
2009,07,21,10,31,21.60
2009,07,21,10,32,21.50
2009,07,21,10,33,21.40
2009,07,21,10,34,21.40
2009,07,21,10,35,21.40
2009,07,21,10,36,21.40
2009,07,21,10,37,21.50
2009,07,21,10,38,21.60
2009,07,21,10,39,21.60
2009,07,21,10,40,21.80
2009,07,21,10,41,21.80
2009,07,21,10,42,21.90
2009,07,21,10,43,22.00
2009,07,21,10,44,22.00
2009,07,21,10,45,22.00
2009,07,21,10,46,22.10
2009,07,21,10,47,22.00
2009,07,21,10,48,21.90
2009,07,21,10,49,21.80
2009,07,21,10,50,21.70
2009,07,21,10,51,21.70
2009,07,21,10,52,21.80
2009,07,21,10,53,21.80
2009,07,21,10,54,21.90
2009,07,21,10,55,22.00
2009,07,21,10,56,22.10
2009,07,21,10,57,22.20
2009,07,21,10,58,22.30
2009,07,21,10,59,22.40
2009,07,21,11,00,22.40
2009,07,21,11,01,22.40
2009,07,21,11,02,22.30
2009,07,21,11,03,22.20
2009,07,21,11,04,22.00
2009,07,21,11,05,22.00
2009,07,21,11,06,21.90
2009,07,21,11,07,21.80
2009,07,21,11,08,21.70
2009,07,21,11,09,21.60
2009,07,21,11,10,21.60
2009,07,21,11,11,21.60
2009,07,21,11,12,21.60
2009,07,21,11,13,21.60
2009,07,21,11,14,21.60
2009,07,21,11,15,21.50
2009,07,21,11,16,21.50
2009,07,21,11,17,21.60
2009,07,21,11,18,21.60
2009,07,21,11,19,21.60
2009,07,21,11,20,21.60
2009,07,21,11,21,21.50
2009,07,21,11,22,21.30
2009,07,21,11,23,21.30
2009,07,21,11,24,21.40
2009,07,21,11,25,21.40
2009,07,21,11,26,21.40
2009,07,21,11,27,21.50
2009,07,21,11,28,21.60
2009,07,21,11,29,21.60
2009,07,21,11,30,21.80
2009,07,21,11,31,22.00
2009,07,21,11,32,22.10
2009,07,21,11,33,22.10
2009,07,21,11,34,22.10
2009,07,21,11,35,22.10
2009,07,21,11,36,22.20
2009,07,21,11,37,22.30
2009,07,21,11,38,22.20
2009,07,21,11,39,22.10
2009,07,21,11,40,22.10
2009,07,21,11,41,22.10
2009,07,21,11,42,22.20
2009,07,21,11,43,22.30
2009,07,21,11,44,22.40
2009,07,21,11,45,22.40
2009,07,21,11,46,22.40
2009,07,21,11,47,22.30
2009,07,21,11,48,22.30
2009,07,21,11,49,22.30
2009,07,21,11,50,22.30
2009,07,21,11,51,22.40
2009,07,21,11,52,22.30
2009,07,21,11,53,22.20
2009,07,21,11,54,22.20
2009,07,21,11,55,22.30
2009,07,21,11,56,22.40
2009,07,21,11,57,22.50
2009,07,21,11,58,22.50
2009,07,21,11,59,22.60
2009,07,21,12,00,22.60
2009,07,21,12,01,22.70
2009,07,21,12,02,22.80
2009,07,21,12,03,22.80
2009,07,21,12,04,22.90
2009,07,21,12,05,22.90
2009,07,21,12,06,22.90
2009,07,21,12,07,22.90
2009,07,21,12,08,23.00
2009,07,21,12,09,23.10
2009,07,21,12,10,23.20
2009,07,21,12,11,23.20
2009,07,21,12,12,23.10
2009,07,21,12,13,23.10
2009,07,21,12,14,23.10
2009,07,21,12,15,23.20
2009,07,21,12,16,23.20
2009,07,21,12,17,23.20
2009,07,21,12,18,23.10
2009,07,21,12,19,23.00
2009,07,21,12,20,22.90
2009,07,21,12,21,22.90
2009,07,21,12,22,22.90
2009,07,21,12,23,23.10
2009,07,21,12,24,23.10
2009,07,21,12,25,23.20
2009,07,21,12,26,23.30
2009,07,21,12,27,23.30
2009,07,21,12,28,23.30
2009,07,21,12,29,23.30
2009,07,21,12,30,23.30
2009,07,21,12,31,23.20
2009,07,21,12,32,23.20
2009,07,21,12,33,23.30
2009,07,21,12,34,23.30
2009,07,21,12,35,23.30
2009,07,21,12,36,23.20
2009,07,21,12,37,23.20
2009,07,21,12,38,23.30
2009,07,21,12,39,23.30
2009,07,21,12,40,23.20
2009,07,21,12,41,23.00
2009,07,21,12,42,22.90
2009,07,21,12,43,22.90
2009,07,21,12,44,22.80
2009,07,21,12,45,22.80
2009,07,21,12,46,22.70
2009,07,21,12,47,22.80
2009,07,21,12,48,22.90
2009,07,21,12,49,23.00
2009,07,21,12,50,23.10
2009,07,21,12,51,23.10
2009,07,21,12,52,23.20
2009,07,21,12,53,23.20
2009,07,21,12,54,23.30
2009,07,21,12,55,23.30
2009,07,21,12,56,23.50
2009,07,21,12,57,23.60
2009,07,21,12,58,23.70
2009,07,21,12,59,23.90
2009,07,21,13,00,24.00
2009,07,21,13,01,24.10
2009,07,21,13,02,24.00
2009,07,21,13,03,23.90
2009,07,21,13,04,23.70
2009,07,21,13,05,23.60
2009,07,21,13,06,23.40
2009,07,21,13,07,23.30
2009,07,21,13,08,23.30
2009,07,21,13,09,23.30
2009,07,21,13,10,23.30
2009,07,21,13,11,23.30
2009,07,21,13,12,23.20
2009,07,21,13,13,23.20
2009,07,21,13,14,23.10
2009,07,21,13,15,23.10
2009,07,21,13,16,23.10
2009,07,21,13,17,23.10
2009,07,21,13,18,23.20
2009,07,21,13,19,23.10
2009,07,21,13,20,23.10
2009,07,21,13,21,23.20
2009,07,21,13,22,23.20
2009,07,21,13,23,23.20
2009,07,21,13,24,23.30
2009,07,21,13,25,23.40
2009,07,21,13,26,23.50
2009,07,21,13,27,23.60
2009,07,21,13,28,23.70
2009,07,21,13,29,23.70
2009,07,21,13,30,23.70
2009,07,21,13,31,23.70
2009,07,21,13,32,23.70
2009,07,21,13,33,23.70
2009,07,21,13,34,23.80
2009,07,21,13,35,23.90
2009,07,21,13,36,24.00
2009,07,21,13,37,24.20
2009,07,21,13,38,24.30
2009,07,21,13,39,24.40
2009,07,21,13,40,24.40
2009,07,21,13,41,24.30
2009,07,21,13,42,24.30
2009,07,21,13,43,24.10
2009,07,21,13,44,23.90
2009,07,21,13,45,23.90
2009,07,21,13,46,23.90
2009,07,21,13,47,24.00
2009,07,21,13,48,24.10
2009,07,21,13,49,24.10
2009,07,21,13,50,24.10
2009,07,21,13,51,24.30
2009,07,21,13,52,24.40
2009,07,21,13,53,24.40
2009,07,21,13,54,24.50
2009,07,21,13,55,24.60
2009,07,21,13,56,24.70
2009,07,21,13,57,24.80
2009,07,21,13,58,24.90
2009,07,21,13,59,24.90
2009,07,21,14,00,24.90
2009,07,21,14,01,25.00
2009,07,21,14,02,25.00
2009,07,21,14,03,25.00
2009,07,21,14,04,25.10
2009,07,21,14,05,25.20
2009,07,21,14,06,25.10
2009,07,21,14,07,25.00
2009,07,21,14,08,24.90
2009,07,21,14,09,24.90
2009,07,21,14,10,24.90
2009,07,21,14,11,24.80
2009,07,21,14,12,24.80
2009,07,21,14,13,24.80
2009,07,21,14,14,24.70
2009,07,21,14,15,24.70
2009,07,21,14,16,24.60
2009,07,21,14,17,24.60
2009,07,21,14,18,24.70
2009,07,21,14,19,24.80
2009,07,21,14,20,25.00
2009,07,21,14,21,25.20
2009,07,21,14,22,25.30
2009,07,21,14,23,25.40
2009,07,21,14,24,25.50
2009,07,21,14,25,25.50
2009,07,21,14,26,25.50
2009,07,21,14,27,25.50
2009,07,21,14,28,25.50
2009,07,21,14,29,25.50
2009,07,21,14,30,25.60
2009,07,21,14,31,25.60
2009,07,21,14,32,25.40
2009,07,21,14,33,25.40
2009,07,21,14,34,25.40
2009,07,21,14,35,25.40
2009,07,21,14,36,25.50
2009,07,21,14,37,25.40
2009,07,21,14,38,25.30
2009,07,21,14,39,25.20
2009,07,21,14,40,25.10
2009,07,21,14,41,25.10
2009,07,21,14,42,25.00
2009,07,21,14,43,25.00
2009,07,21,14,44,25.00
2009,07,21,14,45,25.00
2009,07,21,14,46,25.20
2009,07,21,14,47,25.30
2009,07,21,14,48,25.40
2009,07,21,14,49,25.50
2009,07,21,14,50,25.50
2009,07,21,14,51,25.50
2009,07,21,14,52,25.50
2009,07,21,14,53,25.50
2009,07,21,14,54,25.60
2009,07,21,14,55,25.50
2009,07,21,14,56,25.40
2009,07,21,14,57,25.40
2009,07,21,14,58,25.30
2009,07,21,14,59,25.20
2009,07,21,15,00,25.20
2009,07,21,15,01,25.20
2009,07,21,15,02,25.20
2009,07,21,15,03,25.10
2009,07,21,15,04,25.00
2009,07,21,15,05,25.00
2009,07,21,15,06,24.90
2009,07,21,15,07,25.00
2009,07,21,15,08,24.90
2009,07,21,15,09,25.00
2009,07,21,15,10,25.10
2009,07,21,15,11,25.20
2009,07,21,15,12,25.20
2009,07,21,15,13,25.20
2009,07,21,15,14,25.20
2009,07,21,15,15,25.20
2009,07,21,15,16,25.30
2009,07,21,15,17,25.30
2009,07,21,15,18,25.20
2009,07,21,15,19,25.10
2009,07,21,15,20,25.00
2009,07,21,15,21,25.10
2009,07,21,15,22,25.10
2009,07,21,15,23,25.10
2009,07,21,15,24,25.20
2009,07,21,15,25,25.30
2009,07,21,15,26,25.40
2009,07,21,15,27,25.60
2009,07,21,15,28,25.70
2009,07,21,15,29,25.80
2009,07,21,15,30,25.80
2009,07,21,15,31,25.90
2009,07,21,15,32,25.90
2009,07,21,15,33,25.90
2009,07,21,15,34,25.90
2009,07,21,15,35,25.80
2009,07,21,15,36,25.80
2009,07,21,15,37,25.80
2009,07,21,15,38,25.80
2009,07,21,15,39,25.80
2009,07,21,15,40,25.80
2009,07,21,15,41,25.70
2009,07,21,15,42,25.70
2009,07,21,15,43,25.80
2009,07,21,15,44,25.90
2009,07,21,15,45,25.80
2009,07,21,15,46,25.80
2009,07,21,15,47,25.80
2009,07,21,15,48,25.90
2009,07,21,15,49,25.90
2009,07,21,15,50,25.90
2009,07,21,15,51,26.00
2009,07,21,15,52,26.00
2009,07,21,15,53,26.10
2009,07,21,15,54,26.10
2009,07,21,15,55,26.10
2009,07,21,15,56,26.00
2009,07,21,15,57,25.90
2009,07,21,15,58,25.90
2009,07,21,15,59,25.90
2009,07,21,16,00,26.00
2009,07,21,16,01,26.00
2009,07,21,16,02,26.00
2009,07,21,16,03,26.10
2009,07,21,16,04,26.10
2009,07,21,16,05,26.00
2009,07,21,16,06,26.00
2009,07,21,16,07,25.90
2009,07,21,16,08,25.90
2009,07,21,16,09,25.90
2009,07,21,16,10,26.00
2009,07,21,16,11,26.10
2009,07,21,16,12,26.20
2009,07,21,16,13,26.30
2009,07,21,16,14,26.40
2009,07,21,16,15,26.40
2009,07,21,16,16,26.40
2009,07,21,16,17,26.30
2009,07,21,16,18,26.30
2009,07,21,16,19,26.30
2009,07,21,16,20,26.20
2009,07,21,16,21,26.20
2009,07,21,16,22,26.20
2009,07,21,16,23,26.30
2009,07,21,16,24,26.30
2009,07,21,16,25,26.40
2009,07,21,16,26,26.40
2009,07,21,16,27,26.50
2009,07,21,16,28,26.60
2009,07,21,16,29,26.70
2009,07,21,16,30,26.70
2009,07,21,16,31,26.80
2009,07,21,16,32,26.90
2009,07,21,16,33,27.00
2009,07,21,16,34,27.10
2009,07,21,16,35,27.20
2009,07,21,16,36,27.30
2009,07,21,16,37,27.30
2009,07,21,16,38,27.30
2009,07,21,16,39,27.30
2009,07,21,16,40,27.30
2009,07,21,16,41,27.30
2009,07,21,16,42,27.40
2009,07,21,16,43,27.60
2009,07,21,16,44,27.70
2009,07,21,16,45,27.80
2009,07,21,16,46,27.80
2009,07,21,16,47,27.90
2009,07,21,16,48,27.90
2009,07,21,16,49,28.00
2009,07,21,16,50,28.00
2009,07,21,16,51,28.10
2009,07,21,16,52,28.20
2009,07,21,16,53,28.10
2009,07,21,16,54,28.10
2009,07,21,16,55,28.10
2009,07,21,16,56,28.10
2009,07,21,16,57,28.00
2009,07,21,16,58,27.90
2009,07,21,16,59,27.90
2009,07,21,17,00,27.90
2009,07,21,17,01,27.80
2009,07,21,17,02,27.80
2009,07,21,17,03,27.70
2009,07,21,17,04,27.60
2009,07,21,17,05,27.60
2009,07,21,17,06,27.50
2009,07,21,17,07,27.40
2009,07,21,17,08,27.40
2009,07,21,17,09,27.30
2009,07,21,17,10,27.30
2009,07,21,17,11,27.30
2009,07,21,17,12,27.30
2009,07,21,17,13,27.30
2009,07,21,17,14,27.30
2009,07,21,17,15,27.30
2009,07,21,17,16,27.30
2009,07,21,17,17,27.30
2009,07,21,17,18,27.30
2009,07,21,17,19,27.30